Regional Weather Roundup
Issued by NWS

Home | Current Version | Previous Version | Text Only | Print | Product List | Glossary On
Versions: 1 2 3 4 5 6 7 8 9 10 11 12 13 14 15 16 17 18 19 20 21 22 23 24 25 26 27 28 29 30 31 32 33 34 35 36 37 38 39 40 41 42 43 44 45 46 47 48 49 50
000
ASUS43 KMKX 272359
RWRWI

WISCONSIN REGIONAL WEATHER ROUNDUP
NATIONAL WEATHER SERVICE MILWAUKEE/SULLIVAN WI
600 PM CST TUE JAN 27 2015

NOTE: "FAIR" INDICATES FEW OR NO CLOUDS BELOW 12,000 FEET WITH NO
SIGNIFICANT WEATHER AND/OR OBSTRUCTIONS TO VISIBILITY.

WIZ001-002-006>008-014>016-023>028-280100-
NORTHWEST WISCONSIN

CITY           SKY/WX    TMP DP  RH WIND       PRES   REMARKS
SUPERIOR ARPT  CLOUDY    29  24  81 S3        30.16S
ASHLAND        CLOUDY    29  21  72 S5        30.17S WCI  24
6HR MIN TEMP:  29; 6HR MAX TEMP:  30;

HAYWARD        CLOUDY    27  21  78 S3        30.14S
6HR MIN TEMP:  27; 6HR MAX TEMP:  27;

SIREN          CLOUDY    29  23  77 S3        30.14S
CUMBERLAND     CLOUDY    28  21  74 SE9       30.13F WCI  20
RICE LAKE      CLOUDY    28  22  78 SE8       30.16F WCI  20
CHETEK         CLOUDY    28  21  76 SE7       30.16F WCI  20
LADYSMITH      CLOUDY    27  22  80 SE6       30.17F WCI  21
EAU CLAIRE     MOCLDY    28  19  69 SE7       30.17F WCI  21
6HR MIN TEMP:  28; 6HR MAX TEMP:  31;

MENOMONIE      CLOUDY    29  22  73 SE5       30.17F WCI  24
NEW RICHMOND   CLOUDY    29  24  79 SE7       30.15S WCI  22
OSCEOLA        CLOUDY    31  25  80 SE9       30.17F WCI  23
$$

WIZ003>005-009-010-017-018-280100-
NORTH CENTRAL WISCONSIN

CITY           SKY/WX    TMP DP  RH WIND       PRES   REMARKS
MANITOWISH WTR CLOUDY    23  19  86 S3        30.14F
ARBOR VITAE    CLOUDY    24  19  81 S3        30.15S
WOODRUFF       CLOUDY    24  19  81 S3        30.15S
RHINELANDER    CLOUDY    22  17  81 S6        30.16S WCI  14
6HR MIN TEMP:  22; 6HR MAX TEMP:  24;

EAGLE RIVER    CLOUDY    23  17  78 CALM      30.15S
LAND O LAKES   CLOUDY    24  19  83 S3        30.15S
PHILLIPS       CLOUDY    24  19  83 SE3       30.14F
TOMAHAWK       CLOUDY    23  19  84 CALM      30.17F
MEDFORD        CLOUDY    23  19  86 SE3       30.17S
MERRILL        CLOUDY    25  18  77 SW3       30.19S
$$

WIZ029-030-035-036-043>047-280100-
CENTRAL WISCONSIN

CITY           SKY/WX    TMP DP  RH WIND       PRES   REMARKS
WAUSAU         CLOUDY    24  20  84 CALM      30.18S
6HR MIN TEMP:  23; 6HR MAX TEMP:  25; 6HR PCP: TRACE;

MOSINEE        CLOUDY    25  23  93 CALM      30.20F
MARSHFIELD     CLOUDY    25  21  85 SE3       30.19S
6HR MIN TEMP:  25; 6HR MAX TEMP:  26;

STEVENS POINT  CLOUDY    23  19  87 CALM      30.22S
WAUPACA        CLOUDY    27  19  71 CALM      30.23S
WAUTOMA        NOT AVBL
WISC RAPIDS    CLOUDY    25  21  85 E3        30.22F
6HR MIN TEMP:  24; 6HR MAX TEMP:  26;

CAMP DOUGLAS   NOT AVBL
$$

WIZ011>013-019>022-031-037>040-048>050-280100-
NORTHEAST WISCONSIN

CITY           SKY/WX    TMP DP  RH WIND       PRES   REMARKS
ANTIGO         CLOUDY    22  19  87 S5        30.18S WCI  16
SHAWANO        CLOUDY    26  18  73 CALM      30.24S
OCONTO         CLOUDY    20  17  91 SE3       30.25S
STURGEON BAY   PTCLDY    18  12  79 CALM      30.26S
6HR MIN TEMP:  18; 6HR MAX TEMP:  25;

GREEN BAY      MOCLDY    21  15  78 CALM      30.24F
6HR MIN TEMP:  21; 6HR MAX TEMP:  28;

MANITOWOC      NOT AVBL
APPLETON       CLOUDY    27  16  63 VRB3      30.24R
CLINTONVILLE   CLOUDY    27  19  74 CALM      30.23S
OSHKOSH        CLOUDY    26  16  65 NE5       30.24R WCI  20
6HR MIN TEMP:  26; 6HR MAX TEMP:  28;

$$

WIZ032>034-041-042-053>061-280100-
SOUTHWEST WISCONSIN

CITY           SKY/WX    TMP DP  RH WIND       PRES   REMARKS
LA CROSSE      CLOUDY    30  22  72 SE7       30.20F WCI  23
6HR MIN TEMP:  30; 6HR MAX TEMP:  32;

SPARTA         CLOUDY    27  21  79 SE5       30.22S WCI  22
VIROQUA        CLOUDY    26  22  85 SE7       30.17F WCI  18
BOSCOBEL       CLOUDY    29  21  72 SE6       30.22F WCI  23
6HR MIN TEMP:  29; 6HR MAX TEMP:  30;

PRAIRIE DU CHI CLOUDY    29  21  71 E5        30.22F WCI  24
PLATTEVILLE    CLOUDY    28  23  83 CALM      30.20F
$$

WIZ056-057-062-063-064-067-068-280100-
SOUTH CENTRAL WISCONSIN

CITY           SKY/WX    TMP DP  RH WIND       PRES   REMARKS
REEDSBURG      CLOUDY    26  24  93 CALM      30.22S FOG
BARABOO/DELLS  CLOUDY    26  24  91 CALM      30.22R FOG
LONE ROCK      NOT AVBL
MINERAL POINT  CLOUDY    30  27  86 CALM      30.20S
MADISON        CLOUDY    27  22  81 CALM      30.22R
6HR MIN TEMP:  27; 6HR MAX TEMP:  29; 6HR PCP: TRACE;

MIDDLETON      CLOUDY    29  26  88 CALM      30.23R
WATERTOWN      CLOUDY    27  20  74 CALM      30.22S
MONROE         CLOUDY    28  27  93 CALM      30.21R FOG
JANESVILLE     CLOUDY    30  27  86 CALM      30.22R
$$

WIZ051-052-058>065-066-070>072-280100-
SOUTHEAST WISCONSIN

CITY           SKY/WX    TMP DP  RH WIND       PRES   REMARKS
MILWAUKEE      MOCLDY    27  16  63 NE7       30.24S WCI  19
6HR MIN TEMP:  26; 6HR MAX TEMP:  30;

WAUKESHA       CLOUDY    25  16  68 E5        30.24R WCI  19
MILWAUKEE/TIMM CLOUDY    27  16  63 E6        30.24S WCI  20
RACINE         MOCLDY    24  16  71 N3        30.26R
6HR MIN TEMP:  24; 6HR MAX TEMP:  30;

BURLINGTON     MOCLDY    25  16  69 E6        30.23R WCI  18
KENOSHA        CLEAR     23  17  78 NE5       30.24S WCI  17
6HR MIN TEMP:  23; 6HR MAX TEMP:  31;

FOND DU LAC    CLOUDY    26  17  68 NE5       30.24R WCI  20
6HR MIN TEMP:  26; 6HR MAX TEMP:  29;

SHEBOYGAN      CLOUDY    25  18  74 E3        30.24S
6HR MIN TEMP:  25; 6HR MAX TEMP:  28;

WEST BEND      CLOUDY    27  19  74 E7        30.23R WCI  19
JUNEAU         CLOUDY    27  19  71 CALM      30.24R
$$

LSZ147-162-280100-
LAKE SUPERIOR

STATION/POSITION TIME  TEMP    WIND        PRES    WAVE
                       AIR SEA DIR/SP/G            HT/PER
                 (UTC) (F)     (DEG/KT/KT) (MB)    (FT/S)
DEVILS ISLAND    2300   29     150/  2/  2 1022.6F
PORT WING        2300   30     170/  5/  6 1021.3
SAXON HARBOR     2300   29        CALM     1021.7F
$$

LMZ867-665-643>646-280100-
LAKE MICHIGAN

STATION/POSITION TIME  TEMP    WIND        PRES    WAVE
                       AIR SEA DIR/SP/G            HT/PER
                 (UTC) (F)     (DEG/KT/KT) (MB)    (FT/S)
NORTHPORT PIER   2300   22      CALM  /  9 1024.4R
SISTER BAY       2313   18        CALM       N/A
KEWAUNEE LAKESHO 2300   26      10/  2/  6 1023.4R
SHEBOYGAN LAKESH 2300   27      20/  7/  9 1025.4R
PORT WASHINGTON  2300   27      40/  5/  6 1024.7R
MILWAUKEE LAKESH 2300   28      10/  8/ 10   N/A
KENOSHA   LAKESH 2300   27      10/  7/ 12 1024.0R
$$

TC  - TEMPERATURE IN CELSIUS
VSB - VISIBILITY IN STATUTE MILES
WCI - WIND CHILL INDEX
HX  - HEAT INDEX



USA.gov is the U.S. government's official web portal to all federal, state and local government web resources and services.